Погода в Верховье

Россия / Республика Карелия     61°55′35″N   34°12′15″E
темп.,
°C
ветер,
м/с
пор.,
м/с
влажн.,
%
обл.,
%
осадки,
мм/ч
давл.,
гПа
погр.,
м
17 мая, пн
пн1700:00+11юв1197100 0.0 101122
03:00+11ююв119771 0.0 101223
06:00+12ю11937 0.0 101371
09:00+17ю23725 0.0 1014523
12:00+19вюв23595 0.0 1014999
15:00+18вюв4667100 0.0 1015350
18:00+16вюв3774100 0.0 1014225
21:00+13вюв2985100 0.0 1013174
18 мая, вт
вт1800:00+11вюв21189100 0.0 1013213
03:00+10вюв3139431 0.0 1011271
06:00+11юв41594100 1.4 1010379
09:00+14вюв41088100 1.9 1009274
12:00+21юв4965100 0.0 1008568
15:00+23юв41056100 0.0 1007635
18:00+23юв4105591 0.0 1006692
21:00+19юв41365100 0.0 1006376
19 мая, ср
ср1900:00+18ююв31073100 0.0 1007271
03:00+15юв238930 0.0 100748
06:00+15вюв3984100 0.0 1007260
09:00+20ююв4106658 0.0 1007645
12:00+25ююв59445 0.0 10061378
15:00+26юв5124416 0.2 10051726
18:00+19ююз81683100 7.0 10061469
21:00+17ююв41487100 12.4 1007604
20 мая, чт
чт2000:00+13юв389631 0.1 1007178
03:00+12юв289614 0.1 1007173
06:00+15ю2109065 0.0 1007366
09:00+19юз367315 0.0 1008796
12:00+22юз36565 0.0 10081392
15:00+21вюв346399 0.1 1008776
18:00+19ююв128595 5.8 1008290
21:00+15всв2593100 7.1 1006147
21 мая, пт
пт2100:00+13в2696100 1.3 1005160
03:00+12юв2898100 1.4 1004207
06:00+14юв389599 0.0 1003459
09:00+17юв368016 0.0 1003650
12:00+17ююв587484 0.2 10031001
15:00+18ююв3761100 0.3 10021196
18:00+16юв4874100 0.2 1000725
21:00+13вюв2692100 0.8 999254